Home   Weather   Murau   Past weeks

Flag for Austria Past Weather in Murau, Styria, Austria — Yesterday and Last 2 Weeks

Now
70 °F

Broken clouds.


Feels Like: 70 °F
Forecast: 44 / 63 °F
Wind: 10 mph from Southwest

Location: Zeltweg

Current Time: Oct 1, 2016 at 3:56:11 PM

Latest Report: Oct 1, 2016 at 3:20 PM


Visibility: 19 mi

Pressure: 29.92 "Hg (27.11 "Hg at 848m altitude)

Humidity: 40%

Dew Point: 45 °F

Location of MurauLocation

Past Weather in Murau — Graph

°F

Murau Temperature Yesterday

Maximum temperature yesterday: 73 °F (at 2:20 PM)
Minimum temperature yesterday: 43 °F (at 5:50 AM)
Average temperature yesterday: 59 °F

High & Low Weather Summary for the Past Weeks

 TemperatureHumidityPressure
High77 °F (Sep 16, 2:20 PM)100% (Sep 17, 4:50 AM)30.48 "Hg (Sep 17, 4:50 AM)
Low37 °F (Sep 22, 4:50 AM)33% (Sep 24, 3:50 PM)29.83 "Hg (Sep 17, 7:50 AM)
Average56 °F73%30.12 "Hg
* Reported Sep 16 2:20 PM — Oct 1 2:50 PM, Murau, Weather by CustomWeather, © 2016

Note: Actual official high and low records may vary slightly from our data, if they occured in-between our weather recording intervals... More about our weather records

Advertising

Murau Weather History for the Previous 24 Hours

Scroll right to see more
 ConditionsComfort  
Time TempWeatherWind HumidityBarometerVisibility
2:50 PM
Sat, Oct 1
70 °FBroken clouds.10 mph43%29.92 "Hg19 mi
2:20 PM68 °FBroken clouds.9 mph46%29.95 "Hg19 mi
1:50 PM70 °FBroken clouds.5 mph40%29.95 "Hg19 mi
1:20 PM70 °FBroken clouds.7 mph43%29.98 "Hg19 mi
12:50 PM68 °FBroken clouds.5 mph49%29.98 "Hg19 mi
12:20 PM64 °FPartly sunny.2 mph68%29.98 "Hg19 mi
11:50 AM63 °FPartly sunny.2 mph68%29.98 "Hg19 mi
11:20 AM61 °FPartly sunny.2 mph68%30.01 "Hg12 mi
10:50 AM59 °FPartly sunny.2 mph68%30.01 "Hg12 mi
10:20 AM57 °FPartly sunny.2 mph72%30.01 "Hg12 mi
9:50 AM54 °FPartly sunny.2 mph82%30.01 "Hg12 mi
9:20 AM52 °FPartly sunny.2 mph88%30.04 "Hg12 mi
8:50 AM50 °FPartly sunny.2 mph88%30.04 "Hg6 mi
8:20 AM46 °FPartly sunny.No wind100%30.04 "Hg5 mi
7:50 AM43 °FFog.No wind100%30.04 "Hg1 mi
6:50 AM43 °FFog.No wind93%30.01 "Hg0 mi
5:50 AM43 °FClear.2 mph93%30.01 "Hg1 mi
4:50 AM43 °FClear.1 mph93%30.04 "Hg12 mi
10:50 PM
Fri, Sep 30
52 °FPassing clouds.1 mph88%30.07 "Hg12 mi
9:50 PM54 °FPassing clouds.2 mph82%30.07 "Hg19 mi
8:50 PM55 °FPassing clouds.1 mph77%30.07 "Hg19 mi
7:50 PM61 °FPassing clouds.5 mph68%30.07 "Hg19 mi
6:50 PM61 °FPassing clouds.5 mph72%30.04 "Hg19 mi
5:50 PM68 °FScattered clouds.3 mph49%30.04 "Hg25 mi
4:50 PM70 °FScattered clouds.5 mph43%30.04 "Hg25 mi
3:50 PM72 °FScattered clouds.6 mph41%30.07 "Hg25 mi
3:20 PM73 °FScattered clouds.7 mph36%30.07 "Hg25 mi
Weather by CustomWeather, © 2016

See weather overviewHow to use our weather pages